Waarnemingen

Advertentie
Mijn weer
Ölands Norra Udde, Zweden (2575): temperatuur & dauwpunt: 15.05.2018 18:00:00 - 21.05.2018 18:00:00 (CEST)Ölands Norra Udde, Zweden (2575): windsnelheid & windstoten: 15.05.2018 18:00:00 - 21.05.2018 18:00:00 (CEST)Ölands Norra Udde, Zweden (2575): windrichting: 15.05.2018 18:00:00 - 21.05.2018 18:00:00 (CEST)Ölands Norra Udde, Zweden (2575): luchtdruk: 15.05.2018 18:00:00 - 21.05.2018 18:00:00 (CEST)Ölands Norra Udde, Zweden (2575): zicht: 15.05.2018 18:00:00 - 21.05.2018 18:00:00 (CEST)Ölands Norra Udde, Zweden (2575): neerslag: 15.05.2018 18:00:00 - 21.05.2018 18:00:00 (CEST)
Datum & Tijd tt [°C] td [°C] ff [km/u] ff [kn] fx [km/u] fx [kn] dd ppp [hPa] vv [km] rr [mm]
21.05.2018 18:00:00 19,4 7,5 9 5 16 9 ZO 1025,2 14 0,0
21.05.2018 17:00:00 19,8 9,4 6 3 16 9 ZO 1025,7 13 0,0
21.05.2018 16:00:00 20,1 8,4 5 3 20 11 WZW 1026,5 14 0,0
21.05.2018 15:00:00 19,7 9,6 12 7 21 11 ZZO 1026,9 19 0,0
21.05.2018 14:00:00 19,8 9,4 16 9 21 11 ZZO 1027,6 16 0,0
21.05.2018 13:00:00 19,6 9,8 5 3 13 7 ZO 1028,1 18 0,0
21.05.2018 12:00:00 17,6 10,2 3 1 13 7 W 1028,6 17 0,0
21.05.2018 11:00:00 15,1 9,0 3 2 13 7 NO 1029,0 22 0,0
21.05.2018 10:00:00 17,5 7,2 3 1 15 8 WZW 1029,0 18 0,0
21.05.2018 09:00:00 16,1 5,4 10 5 15 8 W 1029,1 12 0,0
21.05.2018 08:00:00 14,9 5,1 11 6 14 8 W 1029,0 10 0,0
21.05.2018 07:00:00 13,9 5,3 9 5 13 7 W 1029,1 11 0,0
21.05.2018 06:00:00 12,4 6,4 7 4 13 7 ZW 1028,9 12 0,0
21.05.2018 05:00:00 11,3 5,6 9 5 13 7 WZW 1028,8 20 0,0
21.05.2018 04:00:00 11,8 5,4 10 6 19 10 WZW 1028,6 18 0,0
21.05.2018 03:00:00 11,9 5,5 9 5 29 15 WZW 1028,5 12 0,0
21.05.2018 02:00:00 13,5 4,6 14 8 29 15 WZW 1028,4 13 0,0
21.05.2018 01:00:00 13,6 4,2 16 9 24 13 ZW 1028,3 15 0,0
21.05.2018 00:00:00 14,3 5,6 16 9 26 14 ZW 1028,1 21 0,0
20.05.2018 23:00:00 14,4 3,8 13 7 27 14 ZW 1028,0 15 0,0
20.05.2018 22:00:00 15,8 4,5 18 10 29 16 ZZW 1027,6 33 0,0
20.05.2018 21:00:00 16,6 6,4 18 10 30 16 Z 1027,4 25 0,0
20.05.2018 20:00:00 17,6 7,3 23 13 30 16 Z 1027,2 33 0,0
20.05.2018 19:00:00 18,4 9,5 18 10 24 13 ZZO 1027,4 50 0,0
20.05.2018 18:00:00 19,1 9,8 20 11 23 12 ZZO 1027,6 43 0,0
20.05.2018 17:00:00 19,9 9,8 19 10 23 12 ZZO 1028,0 22 0,0
20.05.2018 16:00:00 18,8 6,3 5 3 21 11 N 1028,4 17 0,0
20.05.2018 15:00:00 20,6 7,2 5 3 21 11 ZO 1028,4 22 0,0
20.05.2018 14:00:00 19,3 9,2 10 6 17 9 ZO 1028,4 17 0,0
20.05.2018 13:00:00 18,4 7,2 4 2 11 6 NO 1028,9 43 0,0
20.05.2018 12:00:00 16,2 7,1 8 4 10 6 ONO 1028,9 39 0,0
20.05.2018 11:00:00 13,9 7,7 7 4 10 5 NNO 1028,7 30 0,0
20.05.2018 10:00:00 12,4 6,7 7 4 10 5 NW 1028,5 19 0,0
20.05.2018 09:00:00 12,9 6,5 8 4 11 6 ONO 1028,3 35 0,0
20.05.2018 08:00:00 15,1 4,5 6 3 11 6 WZW 1027,9 14 0,0
20.05.2018 07:00:00 13,5 5,1 5 3 18 10 ZW 1027,4 15 0,0
20.05.2018 06:00:00 10,9 5,2 8 4 18 10 WZW 1026,9 14 0,0
20.05.2018 05:00:00 10,0 4,8 13 7 19 10 W 1026,5 13 0,0
20.05.2018 04:00:00 9,8 4,8 13 7 23 12 WZW 1026,0 14 0,0
20.05.2018 03:00:00 9,6 5,6 11 6 26 14 WZW 1025,7 15 0,0
20.05.2018 02:00:00 10,2 5,0 17 9 26 14 ZW 1025,5 17 0,0
20.05.2018 01:00:00 10,2 3,0 16 9 23 13 ZW 1025,4 13 0,0
20.05.2018 00:00:00 9,9 3,8 13 7 18 10 ZZW 1025,0 16 0,0
19.05.2018 23:00:00 9,9 2,0 7 4 12 6 ZZW 1025,0 16 0,0
19.05.2018 22:00:00 10,4 4,3 7 4 10 6 ZZW 1024,9 11 0,0
19.05.2018 21:00:00 11,4 4,4 6 3 10 5 Z 1024,7 14 0,0
19.05.2018 20:00:00 14,2 5,8 0 0 8 4 N 1024,4 40 0,0
19.05.2018 19:00:00 13,0 5,7 4 2 10 5 ONO 1024,3 46 0,0
19.05.2018 18:00:00 13,7 5,3 5 3 10 5 ONO 1024,4 48 0,0
19.05.2018 17:00:00 13,8 6,9 7 4 12 7 ONO 1024,5 34 0,0
19.05.2018 16:00:00 13,3 7,5 9 5 12 7 NNO 1024,7 40 0,0
19.05.2018 15:00:00 13,0 8,1 8 5 14 7 N 1024,7 42 0,0
19.05.2018 14:00:00 12,6 7,7 10 6 14 7 N 1024,7 38 0,0
19.05.2018 13:00:00 12,5 7,8 12 6 14 7 N 1024,7 45 0,0
19.05.2018 12:00:00 12,5 7,6 11 6 14 8 N 1024,7 14 0,0
19.05.2018 11:00:00 12,2 7,7 9 5 14 8 N 1024,5 13 0,0
19.05.2018 10:00:00 11,5 8,2 11 6 13 7 N 1024,1 13 0,0
19.05.2018 09:00:00 10,4 7,8 10 5 16 9 NNW 1023,7 12 0,0
19.05.2018 08:00:00 10,5 7,0 11 6 17 9 NW 1023,2 12 0,0
19.05.2018 07:00:00 9,4 6,5 15 8 17 9 NW 1022,6 15 0,0
19.05.2018 06:00:00 9,0 7,1 11 6 19 10 NW 1022,4 9 0,0
19.05.2018 05:00:00 8,1 6,4 14 7 19 10 WNW 1022,0 10 0,0
19.05.2018 04:00:00 7,8 6,4 15 8 18 10 W 1021,8 9 0,0
19.05.2018 03:00:00 7,5 6,1 13 7 15 8 W 1021,7 7 0,0
19.05.2018 02:00:00 7,4 5,9 10 5 13 7 W 1021,6 7 0,0
19.05.2018 01:00:00 7,8 5,6 9 5 12 6 W 1021,5 7 0,0
19.05.2018 00:00:00 7,7 6,3 8 5 10 5 W 1021,3 9 0,0
18.05.2018 23:00:00 7,9 5,5 7 4 13 7 NW 1021,0 7 0,0
18.05.2018 22:00:00 9,6 6,1 6 3 16 9 NNO 1020,8 7 0,0
18.05.2018 21:00:00 10,3 6,4 11 6 19 11 NO 1020,2 12 0,0
18.05.2018 20:00:00 11,5 6,0 16 9 19 11 NO 1019,6 38 0,0
18.05.2018 19:00:00 11,9 7,0 4 2 16 9 NNO 1019,2 23 0,0
18.05.2018 18:00:00 12,5 7,6 9 5 29 16 NNO 1019,0 28 0,0
18.05.2018 17:00:00 12,8 7,0 15 8 29 16 NO 1018,7 16 0,0
18.05.2018 16:00:00 13,5 6,4 25 13 29 16 NO 1018,5 16 0,0
18.05.2018 15:00:00 11,6 6,9 17 9 25 13 N 1019,0 15 0,0
18.05.2018 14:00:00 11,6 7,3 19 10 34 18 N 1018,8 17 0,0
18.05.2018 13:00:00 11,4 6,7 20 11 35 19 N 1018,7 16 0,0
18.05.2018 12:00:00 11,4 6,3 29 15 36 20 N 1018,4 15 0,0
18.05.2018 11:00:00 11,0 6,3 28 15 38 20 NNW 1017,8 13 0,0
18.05.2018 10:00:00 10,9 6,6 27 15 38 21 NNW 1017,2 16 0,0
18.05.2018 09:00:00 10,7 6,4 31 17 40 22 N 1016,5 13 0,0
18.05.2018 08:00:00 10,5 6,1 29 16 40 22 N 1016,0 15 0,0
18.05.2018 07:00:00 10,6 5,8 32 17 40 22 N 1015,5 20 0,0
18.05.2018 06:00:00 10,5 5,9 31 17 40 21 N 1015,2 14 0,0
18.05.2018 05:00:00 9,9 7,0 27 15 35 19 NNW 1015,2 11 0,0
18.05.2018 04:00:00 10,4 6,5 26 14 35 19 N 1014,9 14 0,0
18.05.2018 03:00:00 10,4 6,2 25 14 35 19 NNW 1014,9 12 0,0
18.05.2018 02:00:00 10,5 7,4 24 13 31 17 NNW 1015,1 13 0,0
18.05.2018 01:00:00 10,1 8,4 19 10 31 17 NNW 1015,0 12 0,0
18.05.2018 00:00:00 10,8 7,9 21 12 31 17 N 1015,0 14 0,0
17.05.2018 23:00:00 10,7 8,5 17 9 22 12 N 1015,1 10 0,0
17.05.2018 22:00:00 10,6 8,4 16 9 22 12 N 1014,8 12 0,0
17.05.2018 21:00:00 10,3 8,2 16 9 26 14 NNO 1014,7 10 0,0
17.05.2018 20:00:00 10,6 8,2 19 10 27 15 NNO 1014,1 13 0,0
17.05.2018 19:00:00 11,0 8,4 19 11 31 17 NNO 1014,0 14 0,0
17.05.2018 18:00:00 11,1 8,5 23 13 31 17 NNO 1013,9 13 0,0
17.05.2018 17:00:00 11,7 8,5 23 12 28 15 NNO 1014,0 19 0,0
17.05.2018 16:00:00 12,1 8,8 23 12 31 17 N 1014,2 14 0,0
17.05.2018 15:00:00 11,8 8,6 23 12 35 19 N 1014,2 14 0,0
17.05.2018 14:00:00 11,9 8,6 24 13 36 19 N 1014,4 11 0,0
17.05.2018 13:00:00 12,0 8,3 27 15 38 21 N 1014,3 10 0,0
17.05.2018 12:00:00 11,5 8,2 31 17 40 21 N 1014,3 14 0,0
17.05.2018 11:00:00 11,7 8,5 29 16 40 21 N 1014,3 22 0,0
17.05.2018 10:00:00 11,7 8,4 32 17 41 22 N 1014,0 13 0,0
17.05.2018 09:00:00 12,2 9,2 29 15 44 24 N 1013,8 14 0,0
17.05.2018 08:00:00 12,2 9,2 29 16 44 24 N 1013,6 10 0,0
17.05.2018 07:00:00 12,2 9,8 31 17 40 22 N 1013,3 11 0,0
17.05.2018 06:00:00 12,5 10,7 18 10 47 26 N 1012,9 12 0,0
17.05.2018 05:00:00 12,2 10,6 15 8 47 26 NNO 1012,7 10 0,0
17.05.2018 04:00:00 12,2 11,1 6 3 13 7 NO 1012,2 11 0,0
17.05.2018 03:00:00 12,2 11,1 6 4 14 7 N 1012,3 11 0,0
17.05.2018 02:00:00 12,7 11,1 6 3 14 7 NNO 1012,3 11 0,0
17.05.2018 01:00:00 13,0 11,1 6 4 11 6 N 1012,6 15 0,0
17.05.2018 00:00:00 12,7 10,9 6 3 14 8 NNO 1012,9 14 0,0
16.05.2018 23:00:00 11,6 10,2 9 5 18 10 NNW 1013,0 11 0,0
16.05.2018 22:00:00 12,4 8,9 6 3 18 10 WZW 1012,8 21 0,0
16.05.2018 21:00:00 14,4 10,0 5 3 15 8 Z 1012,7 28 0,0
16.05.2018 20:00:00 15,7 10,2 8 4 18 10 ZO 1012,3 25 0,0
16.05.2018 19:00:00 16,9 9,6 7 4 19 10 OZO 1012,6 37 0,0
16.05.2018 18:00:00 17,1 10,0 11 6 19 10 ONO 1012,7 34 0,0
16.05.2018 17:00:00 16,0 10,5 8 4 13 7 NNO 1013,0 34 0,0
16.05.2018 16:00:00 15,8 11,0 8 5 13 7 NNW 1013,4 26 0,0
16.05.2018 15:00:00 15,8 11,2 11 6 14 8 N 1013,5 33 0,0
16.05.2018 14:00:00 15,8 10,6 6 3 14 8 N 1013,7 28 0,0
16.05.2018 13:00:00 15,9 10,4 6 3 18 10 NNO 1014,1 36 0,0
16.05.2018 12:00:00 15,0 9,4 6 4 18 10 NNO 1014,2 19 0,0
16.05.2018 11:00:00 15,4 10,2 10 5 15 8 NNW 1014,1 12 0,0
16.05.2018 10:00:00 15,9 10,6 10 6 17 9 NW 1014,3 11 0,0
16.05.2018 09:00:00 13,8 10,2 13 7 18 10 NNW 1014,2 12 0,0
16.05.2018 08:00:00 - - - - - - - - - -
16.05.2018 07:00:00 - - - - 22 12 - - - -
16.05.2018 06:00:00 - - - - 22 12 - - - -
16.05.2018 05:00:00 - - - - 22 12 - - - -
16.05.2018 04:00:00 - - - - 22 12 - - - -
16.05.2018 03:00:00 12,1 9,8 16 9 19 11 NNW 1015,3 15 0,0
16.05.2018 02:00:00 12,0 9,9 14 7 16 9 NNW 1015,6 15 0,0
16.05.2018 01:00:00 11,8 10,2 10 5 14 8 NNW 1015,9 15 0,0
16.05.2018 00:00:00 11,9 10,0 9 5 14 8 NW 1016,2 11 0,0
15.05.2018 23:00:00 12,3 9,7 6 4 16 9 WNW 1016,2 12 0,0
15.05.2018 22:00:00 13,4 9,3 8 5 19 10 WNW 1016,3 15 0,0
15.05.2018 21:00:00 12,9 10,3 13 7 19 10 NNW 1016,1 25 0,0
15.05.2018 20:00:00 13,1 10,1 16 9 24 13 N 1016,1 34 0,0
15.05.2018 19:00:00 13,5 10,1 14 7 25 13 N 1016,5 36 0,0
15.05.2018 18:00:00 14,3 9,7 21 11 25 13 N 1016,9 35 0,0

tt = temperatuur
td = dauwpunt
ff = windsnelheid
fx = windstoten
dd = windrichting
ppp = luchtdruk
vv = zicht
rr = neerslag

Weerstations in de omgeving